Flag for Gibraltar Weather past 2 weeks in Gibraltar, Gibraltar

Now
77 °F

Sunny.


Feels Like: 78 °F
Forecast: 66 / 80 °F
Wind: 9 mph from Southwest

Location: Gibraltar Airport

Current Time: Aug 21, 2014 at 10:51:47 AM

Latest Report: Aug 21, 2014 at 9:50 AM


Visibility: 10 mi

Pressure: 29.98 "Hg

Humidity: 32%

Dew point: 45 °F

Location of GibraltarLocation

Historic Weather in Gibraltar — Graph

°F

Gibraltar temperature yesterday

Maximum temperature yesterday: 86 °F (at 4:50 PM)
Minimum temperature yesterday: 68 °F (at 12:50 AM)
Average temperature yesterday: 76 °F

Past Weeks' High & Low Weather Summary

 TemperatureHumidityPressure
High86 °F (Aug 11, 3:50 PM)100% (Aug 6, 4:50 PM)30.07 "Hg (Aug 6, 4:50 PM)
Low66 °F (Aug 7, 10:50 PM)25% (Aug 21, 3:50 AM)29.83 "Hg (Aug 8, 7:50 PM)
Average75 °F69%29.96 "Hg
* Reported Aug 6 9:50 AM — Aug 21 9:50 AM, Gibraltar, Weather by CustomWeather, © 2014

Note: Actual official high and low records may vary slightly from our data, if they occured in-between our weather recording intervals... More about our weather records

Advertising

Gibraltar weather history for previous 24 hours

 ConditionsComfort  
Time TempWeatherWind HumidityBarometerVisibility
9:50 AM
Aug 21
77 °FSunny.9 mph32%29.98 "Hg10 mi
8:50 AM73 °FSunny.8 mph31%29.98 "Hg10 mi
7:50 AM75 °FClear.8 mph29%29.95 "Hg10 mi
6:50 AM77 °FPassing clouds.7 mph30%29.95 "HgN/A
5:50 AM75 °FClear.13 mph34%29.95 "HgN/A
4:50 AM75 °FClear.14 mph29%29.95 "HgN/A
3:50 AM75 °FClear.15 mph25%29.98 "HgN/A
2:50 AM75 °FClear.15 mph31%29.98 "HgN/A
1:50 AM75 °FClear.15 mph27%30.01 "HgN/A
12:50 AM77 °FClear.13 mph26%30.01 "HgN/A
11:50 PM
Aug 20
79 °FClear.14 mph30%30.01 "HgN/A
10:50 PM79 °FClear.10 mph39%29.98 "HgN/A
9:50 PM79 °FSunny.12 mph42%29.98 "Hg10 mi
8:50 PM82 °FSunny.12 mph35%29.95 "Hg10 mi
7:50 PM84 °FSunny.10 mph35%29.95 "Hg10 mi
6:50 PM86 °FSunny.12 mph33%29.95 "Hg10 mi
5:50 PM86 °FSunny.12 mph38%29.95 "Hg10 mi
4:50 PM86 °FSunny.12 mph38%29.98 "Hg10 mi
3:50 PM84 °FSunny.12 mph43%29.98 "Hg10 mi
2:50 PM84 °FSunny.10 mph40%30.01 "Hg10 mi
1:50 PM81 °FSunny.10 mph45%30.01 "Hg10 mi
12:50 PM81 °FSunny.9 mph45%30.04 "Hg10 mi
11:50 AM77 °FSunny.9 mph54%30.04 "Hg10 mi
10:50 AM73 °FSunny.10 mph69%30.04 "Hg10 mi
Weather by CustomWeather, © 2014

See weather overviewHow to use our weather pages